tititudorancea.com
Station Historical Data
Daily Summary for October 11, 2018 Units:  Metric    English   Both
« Previous Day
Next Day »
Daily Weekly Monthly Yearly Custom
  High: Low: Average:
Temperature: -17.8 °C 5.3 °C 10.6 °C
Dew Point: -17.8 °C 3.4 °C 6.2 °C
Humidity: Humidity % 52 % 75 %
Wind Speed: 0 km/h 3.7 km/h 13.5 km/h
Wind Gust: 0 km/h - -
Wind:- - SW
Pressure: 0 hPa 1020.9 hPa -
Precipitation: 0 mm    
Historical Graphs
 
 
Ararat weather Find more about Weather in Ararat, AU


 



 


Tabular Data for October 11, 2018
Time Temperature Dew Point Pressure Wind Wind Speed Wind Gust Humidity Rainfall Rate (Hourly)
-17.8 °C -17.8 °C 0 hPa Calm     Humidity % 0 mm
00:04 7.4 °C 3.8 °C 1022.2 hPa North 18.5 km/h 9.5 km/h 78 % 0 mm
00:09 7.4 °C 3.8 °C 1022.2 hPa North 13 km/h 7.7 km/h 78 % 0 mm
00:14 7.2 °C 3.8 °C 1022.2 hPa SSE 13 km/h 10.1 km/h 79 % 0 mm
00:19 7.1 °C 3.7 °C 1022.2 hPa North 13 km/h 8 km/h 79 % 0 mm
00:24 7 °C 3.8 °C 1022.2 hPa North 13 km/h 5.8 km/h 80 % 0 mm
00:29 6.9 °C 3.7 °C 1022.2 hPa SSE 13 km/h 7.4 km/h 80 % 0 mm
00:34 6.9 °C 3.8 °C 1022.2 hPa SSE 12.9 km/h 13.5 km/h 81 % 0 mm
00:39 6.8 °C 3.8 °C 1022.2 hPa North 13 km/h 8.9 km/h 81 % 0 mm
00:44 6.8 °C 3.7 °C 1022.2 hPa North 14.8 km/h 10.8 km/h 81 % 0 mm
00:49 6.8 °C 3.7 °C 1022.2 hPa South 13 km/h 9.2 km/h 81 % 0 mm
00:54 6.7 °C 3.7 °C 1022.2 hPa South 13 km/h 7.1 km/h 81 % 0 mm
00:59 6.7 °C 3.8 °C 1022.2 hPa North 18.5 km/h 11.3 km/h 82 % 0 mm
01:04 6.6 °C 3.8 °C 1022.2 hPa South 11.1 km/h 7.6 km/h 82 % 0 mm
01:09 6.6 °C 3.8 °C 1022.2 hPa South 16.7 km/h 8.9 km/h 82 % 0 mm
01:14 6.6 °C 3.7 °C 1021.9 hPa South 13 km/h 9.5 km/h 82 % 0 mm
01:19 6.6 °C 3.7 °C 1022.2 hPa South 13 km/h 10.1 km/h 82 % 0 mm
01:24 6.5 °C 3.8 °C 1022.2 hPa North 13 km/h 8.7 km/h 83 % 0 mm
01:29 6.4 °C 3.6 °C 1022.2 hPa North 11.3 km/h 6.3 km/h 82 % 0 mm
01:34 6.4 °C 3.7 °C 1021.9 hPa South 9.3 km/h 6.1 km/h 83 % 0 mm
01:39 6.4 °C 3.7 °C 1022.2 hPa North 16.7 km/h 8.5 km/h 83 % 0 mm
01:44 6.4 °C 3.7 °C 1021.9 hPa South 14.8 km/h 7.6 km/h 83 % 0 mm
01:49 6.3 °C 3.7 °C 1021.9 hPa South 16.7 km/h 9.8 km/h 83 % 0 mm
01:54 6.3 °C 3.6 °C 1021.9 hPa North 14.8 km/h 8.4 km/h 83 % 0 mm
01:59 6.2 °C 3.5 °C 1021.9 hPa North 13 km/h 9.8 km/h 83 % 0 mm
02:04 6.1 °C 3.6 °C 1021.9 hPa South 13 km/h 7.7 km/h 84 % 0 mm
02:09 6.1 °C 3.6 °C 1021.9 hPa South 13 km/h 6.9 km/h 84 % 0 mm
02:14 6 °C 3.5 °C 1021.9 hPa North 12.9 km/h 9.3 km/h 84 % 0 mm
02:19 6 °C 3.5 °C 1021.6 hPa South 13 km/h 7.9 km/h 84 % 0 mm
02:24 6 °C 3.7 °C 1021.6 hPa South 16.7 km/h 10.5 km/h 85 % 0 mm
02:29 6.1 °C 3.6 °C 1021.9 hPa South 9.7 km/h 9 km/h 84 % 0 mm
02:34 6.1 °C 3.6 °C 1021.9 hPa South 14.8 km/h 9.8 km/h 84 % 0 mm
02:39 6 °C 3.7 °C 1021.9 hPa South 14.8 km/h 11.6 km/h 85 % 0 mm
02:44 5.9 °C 3.6 °C 1021.6 hPa South 13 km/h 7.4 km/h 85 % 0 mm
02:49 5.9 °C 3.6 °C 1021.6 hPa South 14.8 km/h 7.4 km/h 85 % 0 mm
02:54 5.9 °C 3.6 °C 1021.6 hPa South 11.1 km/h 8 km/h 85 % 0 mm
02:59 5.9 °C 3.6 °C 1021.6 hPa South 13 km/h 6.9 km/h 85 % 0 mm
03:04 5.9 °C 3.6 °C 1021.6 hPa North 11.3 km/h 6.9 km/h 85 % 0 mm
03:09 5.8 °C 3.5 °C 1021.6 hPa South 14.8 km/h 7.9 km/h 85 % 0 mm
03:14 5.8 °C 3.6 °C 1021.6 hPa South 11.1 km/h 7.7 km/h 86 % 0 mm
03:19 5.7 °C 3.6 °C 1021.6 hPa South 5.6 km/h 6.9 km/h 86 % 0 mm
03:24 5.7 °C 3.6 °C 1021.6 hPa North 11.1 km/h 8.4 km/h 86 % 0 mm
03:29 5.7 °C 3.5 °C 1021.6 hPa South 14.8 km/h 7.4 km/h 86 % 0 mm
03:34 5.7 °C 3.5 °C 1021.6 hPa South 13 km/h 8 km/h 86 % 0 mm
03:39 5.7 °C 3.5 °C 1021.2 hPa North 9.3 km/h 7.4 km/h 86 % 0 mm
03:44 5.7 °C 3.7 °C 1021.2 hPa North 18.5 km/h 10.9 km/h 87 % 0 mm
03:49 5.7 °C 3.7 °C 1021.2 hPa North 11.3 km/h 7.2 km/h 87 % 0 mm
03:54 5.7 °C 3.7 °C 1021.2 hPa South 13 km/h 7.9 km/h 87 % 0 mm
03:59 5.7 °C 3.7 °C 1021.2 hPa North 9.3 km/h 6.9 km/h 87 % 0 mm
04:04 5.7 °C 3.7 °C 1021.2 hPa South 9.3 km/h 7.6 km/h 87 % 0 mm
04:09 5.7 °C 3.7 °C 1021.2 hPa North 11.1 km/h 8.2 km/h 87 % 0 mm
04:14 5.6 °C 3.6 °C 1021.2 hPa South 14.8 km/h 7.6 km/h 87 % 0 mm
04:19 5.7 °C 3.7 °C 1021.2 hPa North 16.7 km/h 9.7 km/h 87 % 0 mm
04:24 5.7 °C 3.7 °C 1021.2 hPa South 16.7 km/h 5.8 km/h 87 % 0 mm
04:29 5.6 °C 3.6 °C 1021.2 hPa South 9.3 km/h 6.4 km/h 87 % 0 mm
04:34 5.6 °C 3.6 °C 1021.2 hPa South 11.1 km/h 7.9 km/h 87 % 0 mm
04:39 5.6 °C 3.6 °C 1021.2 hPa North 14.8 km/h 9.7 km/h 87 % 0 mm
04:44 5.6 °C 3.6 °C 1021.2 hPa South 18.5 km/h 10.6 km/h 87 % 0 mm
04:49 5.6 °C 3.6 °C 1021.2 hPa South 9.7 km/h 10.1 km/h 87 % 0 mm
04:54 5.6 °C 3.6 °C 1021.2 hPa South 11.1 km/h 7.9 km/h 87 % 0 mm
04:59 5.6 °C 3.6 °C 1021.6 hPa North 13 km/h 8.4 km/h 87 % 0 mm
05:04 5.6 °C 3.6 °C 1021.6 hPa North 14.8 km/h 13.2 km/h 87 % 0 mm
05:09 5.7 °C 3.7 °C 1021.2 hPa South 18.5 km/h 9.5 km/h 87 % 0 mm
05:14 5.7 °C 3.7 °C 1021.6 hPa North 11.1 km/h 8.9 km/h 87 % 0 mm
05:19 5.7 °C 3.7 °C 1021.2 hPa South 13 km/h 9.7 km/h 87 % 0 mm
05:24 5.7 °C 3.7 °C 1021.2 hPa North 13 km/h 6.3 km/h 87 % 0 mm
05:29 5.6 °C 3.6 °C 1021.6 hPa North 14.8 km/h 9.7 km/h 87 % 0 mm
05:34 5.6 °C 3.6 °C 1021.6 hPa North 14.8 km/h 7.9 km/h 87 % 0 mm
05:39 5.6 °C 3.6 °C 1021.6 hPa North 11.3 km/h 9.2 km/h 87 % 0 mm
05:44 5.6 °C 3.6 °C 1021.6 hPa North 9.3 km/h 7.4 km/h 87 % 0 mm
05:49 5.5 °C 3.7 °C 1021.6 hPa North 11.1 km/h 7.9 km/h 88 % 0 mm
05:54 5.5 °C 3.7 °C 1021.6 hPa South 9.3 km/h 5.5 km/h 88 % 0 mm
05:59 5.5 °C 3.7 °C 1021.6 hPa North 11.1 km/h 8.2 km/h 88 % 0 mm
06:04 5.4 °C 3.6 °C 1021.6 hPa North 7.4 km/h 5 km/h 88 % 0 mm
06:09 5.4 °C 3.6 °C 1021.6 hPa South 9.7 km/h 7.4 km/h 88 % 0 mm
06:14 5.4 °C 3.6 °C 1021.6 hPa North 11.3 km/h 8 km/h 88 % 0 mm
06:19 5.4 °C 3.6 °C 1021.9 hPa North 11.1 km/h 6 km/h 88 % 0 mm
06:24 5.4 °C 3.6 °C 1021.9 hPa South 9.3 km/h 9.8 km/h 88 % 0 mm
06:29 5.4 °C 3.6 °C 1021.6 hPa South 9.3 km/h 8.4 km/h 88 % 0 mm
06:34 5.4 °C 3.6 °C 1021.9 hPa South 9.3 km/h 8 km/h 88 % 0 mm
06:39 5.4 °C 3.6 °C 1021.9 hPa North 7.4 km/h 4.2 km/h 88 % 0 mm
06:44 5.4 °C 3.6 °C 1021.9 hPa South 11.1 km/h 4.3 km/h 88 % 0 mm
06:49 5.3 °C 3.5 °C 1021.9 hPa North 11.1 km/h 5.3 km/h 88 % 0 mm
06:54 5.3 °C 3.4 °C 1022.2 hPa South 5.6 km/h 5.5 km/h 88 % 0 mm
06:59 5.3 °C 3.6 °C 1022.2 hPa South 7.4 km/h 4.7 km/h 89 % 0 mm
07:04 5.3 °C 3.6 °C 1022.2 hPa South 7.4 km/h 5.5 km/h 89 % 0 mm
07:09 5.3 °C 3.6 °C 1022.6 hPa South 8 km/h 7.1 km/h 89 % 0 mm
07:14 5.3 °C 3.7 °C 1022.6 hPa North 5.6 km/h 5.8 km/h 89 % 0 mm
07:19 5.4 °C 3.7 °C 1022.6 hPa North 9.3 km/h 5.8 km/h 89 % 0 mm
07:24 5.5 °C 3.8 °C 1022.6 hPa South 11.1 km/h 8.4 km/h 89 % 0 mm
07:29 5.7 °C 4 °C 1022.6 hPa South 9.7 km/h 7.7 km/h 89 % 0 mm
07:34 5.8 °C 4.1 °C 1022.6 hPa North 9.3 km/h 6 km/h 89 % 0 mm
07:39 5.9 °C 4.1 °C 1022.6 hPa South 5.6 km/h 7.1 km/h 88 % 0 mm
07:40 5.9 °C 4.1 °C 1022.6 hPa North 9.3 km/h 6.6 km/h 88 % 0 mm
07:59 6.4 °C 4.6 °C 1022.9 hPa North 7.4 km/h 7.4 km/h 88 % 0 mm
08:03 6.6 °C 4.7 °C 1022.9 hPa North 8 km/h 6.6 km/h 88 % 0 mm
08:09 6.8 °C 4.8 °C 1022.9 hPa North 5.6 km/h 4.7 km/h 87 % 0 mm
08:14 6.9 °C 4.9 °C 1022.9 hPa North 13 km/h 5.8 km/h 87 % 0 mm
08:19 6.9 °C 4.8 °C 1023.2 hPa South 11.3 km/h 6.9 km/h 86 % 0 mm
08:24 7.1 °C 5.1 °C 1023.2 hPa South 8 km/h 5.8 km/h 87 % 0 mm
08:29 7.2 °C 5.1 °C 1023.2 hPa South 14.8 km/h 5.5 km/h 86 % 0 mm
08:34 7.3 °C 5.2 °C 1023.2 hPa South 8 km/h 5.3 km/h 86 % 0 mm
08:39 7.5 °C 5.2 °C 1023.2 hPa South 11.1 km/h 4.5 km/h 85 % 0 mm
08:44 7.7 °C 5.3 °C 1023.2 hPa South 11.1 km/h 11.1 km/h 85 % 0 mm
08:49 7.8 °C 5.4 °C 1023.2 hPa South 13 km/h 10.3 km/h 85 % 0 mm
08:54 7.9 °C 5.6 °C 1023.6 hPa North 11.1 km/h 8.5 km/h 85 % 0 mm
08:59 8.2 °C 5.8 °C 1023.2 hPa South 11.1 km/h 8.4 km/h 85 % 0 mm
09:04 8.4 °C 5.8 °C 1023.2 hPa South 13 km/h 8.4 km/h 84 % 0 mm
09:09 8.4 °C 5.9 °C 1023.2 hPa North 11.1 km/h 6.6 km/h 84 % 0 mm
09:14 8.6 °C 5.9 °C 1023.2 hPa North 9.3 km/h 7.2 km/h 83 % 0 mm
09:19 8.8 °C 6.3 °C 1023.2 hPa South 11.1 km/h 8 km/h 84 % 0 mm
09:24 9 °C 6.3 °C 1023.2 hPa South 13 km/h 8.2 km/h 83 % 0 mm
09:29 9.4 °C 6.7 °C 1023.2 hPa North 7.4 km/h 5.8 km/h 83 % 0 mm
09:34 9.6 °C 6.7 °C 1023.2 hPa North 14.8 km/h 8.7 km/h 82 % 0 mm
09:39 9.7 °C 6.8 °C 1023.6 hPa South 13 km/h 9.8 km/h 82 % 0 mm
09:44 9.7 °C 6.6 °C 1023.6 hPa South 5.6 km/h 1.1 km/h 81 % 0 mm
09:49 9.9 °C 6.9 °C 1023.6 hPa North 12.9 km/h 5.8 km/h 82 % 0 mm
09:54 10.3 °C 7 °C 1023.6 hPa South 9.3 km/h 6.3 km/h 80 % 0 mm
09:59 10.4 °C 6.8 °C 1023.6 hPa South 9.7 km/h 7.7 km/h 78 % 0 mm
10:04 10.7 °C 7.2 °C 1023.6 hPa South 11.1 km/h 4 km/h 79 % 0 mm
10:09 11 °C 6.9 °C 1023.6 hPa South 11.1 km/h 6.8 km/h 76 % 0 mm
10:14 11.1 °C 7 °C 1023.6 hPa South 8 km/h 6.1 km/h 76 % 0 mm
10:19 11.2 °C 6.9 °C 1023.6 hPa South 13 km/h 9.7 km/h 75 % 0 mm
10:24 11.3 °C 7.3 °C 1023.6 hPa South 12.9 km/h 5.8 km/h 76 % 0 mm
10:29 11.6 °C 7.3 °C 1023.6 hPa South 6.4 km/h 6 km/h 75 % 0 mm
10:34 12.3 °C 7.9 °C 1023.6 hPa South 9.3 km/h 8.9 km/h 75 % 0 mm
10:39 12.3 °C 7.2 °C 1023.6 hPa South 9.7 km/h 9 km/h 71 % 0 mm
10:44 12.2 °C 7.3 °C 1023.6 hPa South 13 km/h 7.9 km/h 72 % 0 mm
10:49 12.4 °C 7.5 °C 1023.6 hPa South 9.7 km/h 9.8 km/h 72 % 0 mm
10:54 13 °C 7.4 °C 1023.6 hPa SSE 11.1 km/h 8.2 km/h 69 % 0 mm
10:59 13.1 °C 7.7 °C 1023.6 hPa South 13 km/h 9.8 km/h 70 % 0 mm
11:04 13 °C 7.2 °C 1023.6 hPa South 8 km/h 6.9 km/h 68 % 0 mm
11:09 13.1 °C 7.3 °C 1023.6 hPa South 3.7 km/h 4.2 km/h 68 % 0 mm
11:14 13.4 °C 7.7 °C 1023.2 hPa South 11.1 km/h 7.4 km/h 68 % 0 mm
11:19 13.7 °C 7.3 °C 1023.2 hPa South 9.3 km/h 2.3 km/h 65 % 0 mm
11:24 13.9 °C 7.4 °C 1023.2 hPa South 11.1 km/h 4.7 km/h 65 % 0 mm
11:29 13.9 °C 7.9 °C 1023.2 hPa South 13 km/h 8.9 km/h 67 % 0 mm
11:34 13.9 °C 7.9 °C 1023.2 hPa South 11.1 km/h 5.1 km/h 67 % 0 mm
11:39 14.1 °C 7.2 °C 1023.2 hPa South 9.3 km/h 6.3 km/h 63 % 0 mm
11:44 14.2 °C 7.3 °C 1023.2 hPa South 14.8 km/h 4.3 km/h 63 % 0 mm
11:49 14.7 °C 8 °C 1023.2 hPa South 11.1 km/h 8.7 km/h 64 % 0 mm
11:54 14.9 °C 7.7 °C 1022.9 hPa South 18.5 km/h 10.6 km/h 62 % 0 mm
11:59 15.3 °C 7.8 °C 1022.9 hPa South 11.3 km/h 7.4 km/h 61 % 0 mm
12:04 14.9 °C 7.2 °C 1022.9 hPa SSW 11.1 km/h 6.6 km/h 60 % 0 mm
12:09 14.8 °C 6.8 °C 1022.9 hPa SSW 13 km/h 7.9 km/h 59 % 0 mm
12:14 14.6 °C 6.9 °C 1022.9 hPa SSW 9.3 km/h 5 km/h 60 % 0 mm
12:19 14.8 °C 7.1 °C 1022.9 hPa SSW 16.7 km/h 6.4 km/h 60 % 0 mm
12:24 15 °C 7.6 °C 1022.9 hPa SSW 9.3 km/h 8.9 km/h 61 % 0 mm
12:29 14.9 °C 6.7 °C 1022.6 hPa SSW 11.1 km/h 1.4 km/h 58 % 0 mm
12:34 14.9 °C 7.2 °C 1022.6 hPa SSW 18.5 km/h 8.4 km/h 60 % 0 mm
12:39 15.1 °C 7.7 °C 1022.6 hPa SSW 3.7 km/h 4.7 km/h 61 % 0 mm
12:44 15.5 °C 8 °C 1022.6 hPa SSW 5.6 km/h 2.9 km/h 61 % 0 mm
12:49 15.5 °C 7.3 °C 1022.6 hPa SSW 14.8 km/h 7.2 km/h 58 % 0 mm
12:54 15.6 °C 7.6 °C 1022.6 hPa South 14.8 km/h 10.9 km/h 59 % 0 mm
12:59 15.8 °C 7.8 °C 1022.2 hPa South 13 km/h 8.2 km/h 59 % 0 mm
13:04 16.1 °C 8.1 °C 1022.2 hPa SSE 14.8 km/h 11.4 km/h 59 % 0 mm
13:09 16.4 °C 7.6 °C 1022.2 hPa SSE 7.4 km/h 0.3 km/h 56 % 0 mm
13:14 16.2 °C 7.7 °C 1022.2 hPa SSE 14.5 km/h 9.7 km/h 57 % 0 mm
13:19 15.9 °C 7.6 °C 1022.2 hPa South 9.3 km/h 7.6 km/h 58 % 0 mm
13:24 15.9 °C 7.4 °C 1022.2 hPa North 18.5 km/h 14.2 km/h 57 % 0 mm
13:29 16.1 °C 7.8 °C 1021.9 hPa South 11.1 km/h 8.9 km/h 58 % 0 mm
13:34 16.6 °C 8.3 °C 1022.2 hPa South 13 km/h 9.5 km/h 58 % 0 mm
13:39 16.5 °C 8.4 °C 1022.2 hPa South 13 km/h 11.3 km/h 59 % 0 mm
13:44 16.7 °C 8.1 °C 1022.2 hPa South 18.5 km/h 12.2 km/h 57 % 0 mm
13:49 16.6 °C 8.3 °C 1021.9 hPa South 25.9 km/h 15.4 km/h 58 % 0 mm
13:54 16.5 °C 7.9 °C 1021.9 hPa South 14.8 km/h 11.4 km/h 57 % 0 mm
13:59 16.5 °C 8.4 °C 1021.9 hPa SSE 18.5 km/h 12.7 km/h 59 % 0 mm
14:04 16.8 °C 8.3 °C 1021.9 hPa South 18.5 km/h 10.9 km/h 57 % 0 mm
14:09 16.6 °C 8.3 °C 1021.9 hPa South 16.7 km/h 7.6 km/h 58 % 0 mm
14:14 16.3 °C 8.8 °C 1021.9 hPa South 18.5 km/h 9.7 km/h 61 % 0 mm
14:19 16.4 °C 8.7 °C 1021.9 hPa North 8 km/h 6.4 km/h 60 % 0 mm
14:24 17 °C 8.4 °C 1021.9 hPa SSW 16.7 km/h 9 km/h 57 % 0 mm
14:29 16.9 °C 8.1 °C 1021.9 hPa SSW 11.1 km/h 6.3 km/h 56 % 0 mm
14:34 16.6 °C 8.6 °C 1021.9 hPa SE 18.5 km/h 16.4 km/h 59 % 0 mm
14:39 16.5 °C 7.9 °C 1021.9 hPa SE 16.7 km/h 8.4 km/h 57 % 0 mm
14:44 16.5 °C 8.2 °C 1021.9 hPa South 17.7 km/h 14.6 km/h 58 % 0 mm
14:49 16.7 °C 8.7 °C 1021.9 hPa SSE 14.8 km/h 8.4 km/h 59 % 0 mm
14:54 16.8 °C 7.9 °C 1021.9 hPa SSE 11.1 km/h 11.9 km/h 56 % 0 mm
14:59 16.4 °C 8.1 °C 1021.9 hPa South 17.7 km/h 13.4 km/h 58 % 0 mm
15:04 16.4 °C 8.1 °C 1021.6 hPa SSW 18.5 km/h 15.8 km/h 58 % 0 mm
15:09 16.5 °C 7.9 °C 1021.6 hPa South 18.5 km/h 13.8 km/h 57 % 0 mm
15:14 16.7 °C 8.4 °C 1021.6 hPa South 22.2 km/h 16.6 km/h 58 % 0 mm
15:19 17.1 °C 8.3 °C 1021.6 hPa SSE 18.5 km/h 13 km/h 56 % 0 mm
15:24 16.7 °C 8.2 °C 1021.6 hPa South 16.7 km/h 10.8 km/h 57 % 0 mm
15:29 17.1 °C 8.2 °C 1021.6 hPa SSE 16.1 km/h 5.6 km/h 56 % 0 mm
15:34 17.1 °C 8 °C 1021.6 hPa SSE 14.8 km/h 10.6 km/h 55 % 0 mm
15:39 16.4 °C 7.8 °C 1021.6 hPa South 20.4 km/h 17.2 km/h 57 % 0 mm
15:44 16.7 °C 8.2 °C 1021.6 hPa South 18.5 km/h 15.1 km/h 57 % 0 mm
15:49 16.8 °C 8 °C 1021.2 hPa South 16.7 km/h 12.6 km/h 56 % 0 mm
15:54 17.1 °C 7.7 °C 1021.6 hPa SSE 18.5 km/h 8.4 km/h 54 % 0 mm
15:59 17.5 °C 8.6 °C 1021.2 hPa SE 18.5 km/h 8.5 km/h 56 % 0 mm
16:04 17.3 °C 8.2 °C 1021.6 hPa SSE 19.3 km/h 11.3 km/h 55 % 0 mm
16:09 16.8 °C 7.7 °C 1021.6 hPa SSE 20.4 km/h 12.7 km/h 55 % 0 mm
16:14 16.4 °C 7.9 °C 1021.2 hPa South 18.5 km/h 15.3 km/h 57 % 0 mm
16:19 16.8 °C 8.2 °C 1021.2 hPa SSE 13 km/h 12.2 km/h 57 % 0 mm
16:24 17.2 °C 8.6 °C 1021.2 hPa SSE 29.6 km/h 11.7 km/h 57 % 0 mm
16:29 17.2 °C 8.1 °C 1021.2 hPa SE 22.2 km/h 15.3 km/h 55 % 0 mm
16:34 17.2 °C 7.8 °C 1020.9 hPa SSE 16.1 km/h 11.7 km/h 54 % 0 mm
16:39 17.1 °C 7.7 °C 1020.9 hPa SSE 19.3 km/h 13 km/h 54 % 0 mm
16:44 17.2 °C 8.1 °C 1020.9 hPa South 24.1 km/h 17.7 km/h 55 % 0 mm
16:49 16.9 °C 7.8 °C 1021.2 hPa SSE 13 km/h 10.5 km/h 55 % 0 mm
16:54 16.8 °C 7.4 °C 1021.2 hPa SE 18.5 km/h 14 km/h 54 % 0 mm
16:59 16.7 °C 7.3 °C 1021.2 hPa SE 29.6 km/h 14.2 km/h 54 % 0 mm
17:04 16.9 °C 7.8 °C 1021.2 hPa SSE 18.5 km/h 11.7 km/h 55 % 0 mm
17:09 17.1 °C 7.4 °C 1021.2 hPa SSE 18.5 km/h 10 km/h 53 % 0 mm
17:14 17.1 °C 7.4 °C 1021.2 hPa SSE 16.7 km/h 8.7 km/h 53 % 0 mm
17:19 17.2 °C 7.5 °C 1021.2 hPa SSE 11.3 km/h 6.6 km/h 53 % 0 mm
17:24 17.2 °C 7.3 °C 1021.2 hPa SE 18.5 km/h 9.8 km/h 52 % 0 mm
17:29 17.1 °C 7.4 °C 1021.2 hPa SSE 18.5 km/h 15.9 km/h 53 % 0 mm
17:34 17 °C 7.3 °C 1021.2 hPa South 16.1 km/h 10.6 km/h 53 % 0 mm
17:39 16.9 °C 7.2 °C 1021.2 hPa SSE 16.7 km/h 15 km/h 53 % 0 mm
17:44 16.9 °C 7.2 °C 1021.2 hPa SSE 18.5 km/h 13.2 km/h 53 % 0 mm
17:49 16.9 °C 7.3 °C 1021.6 hPa SSE 14.8 km/h 7.9 km/h 53 % 0 mm
17:54 16.9 °C 7.3 °C 1021.6 hPa SSE 18.5 km/h 8.4 km/h 53 % 0 mm
17:59 16.9 °C 7.3 °C 1021.6 hPa SSE 20.4 km/h 14.5 km/h 53 % 0 mm
18:04 16.8 °C 6.8 °C 1021.6 hPa SE 18.5 km/h 10.8 km/h 52 % 0 mm
18:09 16.7 °C 7.1 °C 1021.6 hPa SSE 16.7 km/h 11.7 km/h 53 % 0 mm
18:14 16.7 °C 7.6 °C 1021.6 hPa SSE 18.5 km/h 13.5 km/h 55 % 0 mm
18:19 16.5 °C 8.2 °C 1021.9 hPa SE 16.7 km/h 9.8 km/h 58 % 0 mm
18:24 16.3 °C 8.5 °C 1021.9 hPa SE 22.2 km/h 9.2 km/h 60 % 0 mm
18:29 15.9 °C 8.2 °C 1021.9 hPa SE 22.2 km/h 17.5 km/h 60 % 0 mm
18:34 15.7 °C 8.4 °C 1021.9 hPa SE 24.1 km/h 14.2 km/h 62 % 0 mm
18:39 15.5 °C 8.5 °C 1021.9 hPa SSE 14.8 km/h 13 km/h 63 % 0 mm
18:44 15.3 °C 8.6 °C 1021.9 hPa SE 24.1 km/h 12.6 km/h 64 % 0 mm
18:49 15.2 °C 8.4 °C 1021.9 hPa SE 18.5 km/h 8.9 km/h 64 % 0 mm
18:54 15 °C 8.4 °C 1021.9 hPa SE 24.1 km/h 16.9 km/h 65 % 0 mm
18:59 14.7 °C 8.4 °C 1022.2 hPa North 20.4 km/h 15.3 km/h 66 % 0 mm
19:04 14.4 °C 8.4 °C 1022.2 hPa North 16.7 km/h 12.7 km/h 67 % 0 mm
19:09 14.2 °C 8.3 °C 1022.2 hPa SE 18.5 km/h 13.2 km/h 68 % 0 mm
19:14 14 °C 8.4 °C 1022.2 hPa SSE 16.7 km/h 9.2 km/h 69 % 0 mm
19:19 13.8 °C 8.4 °C 1022.2 hPa SSE 13 km/h 12.1 km/h 70 % 0 mm
19:24 13.5 °C 8.3 °C 1022.2 hPa SSE 14.8 km/h 12.4 km/h 71 % 0 mm
19:29 13.2 °C 8.1 °C 1022.6 hPa SSE 18.5 km/h 9.5 km/h 71 % 0 mm
19:34 13 °C 8.1 °C 1022.6 hPa North 13 km/h 9.2 km/h 72 % 0 mm
19:39 12.8 °C 8.1 °C 1022.6 hPa SSE 16.1 km/h 11.6 km/h 73 % 0 mm
19:44 12.6 °C 8.1 °C 1022.6 hPa SSE 7.4 km/h 6.1 km/h 74 % 0 mm
19:49 12.4 °C 7.9 °C 1022.6 hPa North 16.7 km/h 8.4 km/h 74 % 0 mm
19:54 12.3 °C 7.9 °C 1022.6 hPa SSE 12.9 km/h 8.5 km/h 75 % 0 mm
19:59 12.1 °C 8 °C 1022.6 hPa SSE 14.8 km/h 10.9 km/h 76 % 0 mm
20:04 11.9 °C 7.8 °C 1022.6 hPa North 18.5 km/h 8.5 km/h 76 % 0 mm
20:09 11.7 °C 7.8 °C 1022.6 hPa South 9.3 km/h 7.6 km/h 77 % 0 mm
20:14 11.6 °C 7.8 °C 1022.6 hPa North 17.7 km/h 7.7 km/h 78 % 0 mm
20:19 11.4 °C 7.9 °C 1022.9 hPa North 20.4 km/h 10.9 km/h 79 % 0 mm
20:24 11.3 °C 7.9 °C 1022.9 hPa SSE 16.7 km/h 6.6 km/h 80 % 0 mm
20:29 11.1 °C 7.8 °C 1022.9 hPa North 13 km/h 11.4 km/h 80 % 0 mm
20:34 10.9 °C 7.8 °C 1022.9 hPa South 14.8 km/h 10.5 km/h 81 % 0 mm
20:39 10.8 °C 7.8 °C 1022.9 hPa North 18.5 km/h 9 km/h 82 % 0 mm
20:44 10.7 °C 7.9 °C 1022.9 hPa South 18.5 km/h 10.1 km/h 83 % 0 mm
20:49 10.6 °C 7.9 °C 1022.9 hPa North 11.3 km/h 8.2 km/h 84 % 0 mm
20:54 10.4 °C 7.8 °C 1023.2 hPa North 9.7 km/h 9 km/h 84 % 0 mm
20:59 10.3 °C 7.9 °C 1023.2 hPa North 13 km/h 7.4 km/h 85 % 0 mm
21:04 10.2 °C 7.8 °C 1023.2 hPa North 16.7 km/h 10.1 km/h 85 % 0 mm
21:09 10.2 °C 7.9 °C 1023.2 hPa North 9.3 km/h 5.6 km/h 86 % 0 mm
21:14 10.1 °C 7.8 °C 1023.2 hPa SSE 13 km/h 8.5 km/h 86 % 0 mm
21:19 9.9 °C 7.7 °C 1023.2 hPa North 19.3 km/h 10.9 km/h 86 % 0 mm
21:24 9.9 °C 7.8 °C 1023.2 hPa South 14.8 km/h 9.5 km/h 87 % 0 mm
21:29 9.8 °C 7.7 °C 1023.2 hPa SSE 8 km/h 9 km/h 87 % 0 mm
21:34 9.7 °C 7.8 °C 1023.2 hPa North 13 km/h 9 km/h 88 % 0 mm
21:39 9.6 °C 7.7 °C 1023.2 hPa SSE 11.1 km/h 8 km/h 88 % 0 mm
21:44 9.6 °C 7.7 °C 1022.9 hPa North 11.1 km/h 9.7 km/h 88 % 0 mm
21:49 9.5 °C 7.8 °C 1022.9 hPa North 18.5 km/h 5.1 km/h 89 % 0 mm
21:54 9.4 °C 7.7 °C 1023.2 hPa South 16.7 km/h 10.3 km/h 89 % 0 mm
21:59 9.3 °C 7.6 °C 1023.2 hPa South 14.8 km/h 8.2 km/h 89 % 0 mm
22:04 9.2 °C 7.5 °C 1023.2 hPa North 16.7 km/h 10.8 km/h 89 % 0 mm
22:09 9.2 °C 7.6 °C 1023.2 hPa South 13 km/h 9.3 km/h 90 % 0 mm
22:14 9.1 °C 7.5 °C 1023.2 hPa South 11.1 km/h 9.3 km/h 90 % 0 mm
22:19 9 °C 7.4 °C 1023.2 hPa North 14.8 km/h 9.8 km/h 90 % 0 mm
22:24 8.9 °C 7.4 °C 1023.2 hPa North 13 km/h 6.9 km/h 90 % 0 mm
22:29 8.9 °C 7.3 °C 1023.2 hPa North 9.7 km/h 8.9 km/h 90 % 0 mm
22:34 8.9 °C 7.5 °C 1023.2 hPa North 11.1 km/h 8.5 km/h 91 % 0 mm
22:39 8.8 °C 7.4 °C 1023.2 hPa North 14.8 km/h 7.7 km/h 91 % 0 mm
22:44 8.8 °C 7.4 °C 1023.2 hPa North 13 km/h 8.2 km/h 91 % 0 mm
22:49 8.8 °C 7.4 °C 1023.2 hPa South 13 km/h 10.1 km/h 91 % 0 mm
22:54 8.7 °C 7.3 °C 1023.2 hPa North 11.3 km/h 8.7 km/h 91 % 0 mm
22:59 8.8 °C 7.4 °C 1023.2 hPa South 14.8 km/h 11.9 km/h 91 % 0 mm
23:04 8.8 °C 7.4 °C 1023.2 hPa North 16.7 km/h 11.7 km/h 91 % 0 mm
23:09 8.8 °C 7.4 °C 1023.2 hPa North 9.3 km/h 6.3 km/h 91 % 0 mm
23:14 8.7 °C 7.3 °C 1023.2 hPa North 13 km/h 10.9 km/h 91 % 0 mm
23:19 8.7 °C 7.3 °C 1023.2 hPa North 11.1 km/h 6.6 km/h 91 % 0 mm
23:24 8.7 °C 7.3 °C 1023.2 hPa South 9.7 km/h 6.3 km/h 91 % 0 mm
23:29 8.7 °C 7.4 °C 1023.2 hPa South 9.7 km/h 9.7 km/h 92 % 0 mm
23:34 8.6 °C 7.2 °C 1023.2 hPa North 8 km/h 7.7 km/h 91 % 0 mm
23:39 8.6 °C 7.3 °C 1023.2 hPa South 9.7 km/h 6.4 km/h 92 % 0 mm
23:44 8.6 °C 7.2 °C 1023.2 hPa North 9.3 km/h 7.7 km/h 91 % 0 mm
23:49 8.6 °C 7.3 °C 1023.2 hPa South 14.8 km/h 8.4 km/h 92 % 0 mm
23:54 8.5 °C 7.3 °C 1023.2 hPa North 9.3 km/h 6.3 km/h 92 % 0 mm
23:59 8.5 °C 7.3 °C 1023.2 hPa South 13 km/h 9 km/h 92 % 0 mm
Ararat Weather
Compliments of Weather Underground - 2.25 mb
Click here to send mail.


ABOUT

Live weather data from Ararat, Victoria, Australia, 3377
Data uploaded from Cumulus every 5 minutes to Weather Underground.
This site then downloads the raw data for formatting and display.
Metric and imperial data can be displayed. Graphs and historical data available.
Includes Sun and Moon times and rain image live from BOM.

Check out Ararat Weather on Facebook, Twitter and Google +

Help support ongoing costs by checking out the ads





Follow @AraratWeather